Main page
Satellite images Climate Cyclones Lightning AirportsFAQ Languages Contact Newsletter About
Weather : Europe Africa North America South America Asia Australia-Oceania Others

surat-thani-th, Surat Thani, Surat Thani International Airport

48551

latitude: , longitude: Thailand, elevation: 09-07N m


METAR: VTSB 142200Z 35002KT 6000 FEW020 24/24 Q1011